[[{"header":{"parameterUnit":"m.s-1","parameterCategory":1,"la1":30.2991,"la2":30.254,"lo1":-89.0895,"lo2":-89.0444,"dy":0.0017,"dx":0.0017,"nx":28,"ny":28,"refTime":"2025-06-16T03:00:00:Z","depth":0,"parameterNumber":2,"parameterNumberName":"U-component_of_WINDS"},"data":[0,0,0,0,0,0,0,0,0,0,0,0,0,0,0,0,0,0,0,0,0,0,0,0,0,0,0,0,0,0,0,0,0,0,0,0,0,0,0,0,0,0,0,0,0,0,0,0,0,0,0,0,0,0,0,0,0,0,0.226,0.2261,0,0.2367,0.2368,0.237,0.2449,0.2449,0.245,0.2451,0.2565,0.2567,0.2569,0,0,0,0,0,0,0,0,0,0,0,0,0,0.2129,0.2131,0.226,0.2261,0.2263,0.2367,0.2368,0.237,0.2448,0.2449,0.245,0.2451,0.2564,0.2567,0.257,0,0,0,0,0,0,0,0,0,0,0,0,0,0.2206,0.2132,0.226,0.2314,0.232,0.2367,0.2368,0.237,0.2448,0.2449,0.245,0.2451,0.2563,0.2567,0.257,0.2572,0,0,0.2581,0.2583,0,0,0,0,0,0,0,0,0.2202,0.2211,0.2305,0.2311,0.2318,0.2395,0.2364,0.2438,0.2448,0.24,0.2451,0.2452,0.2508,0.2516,0.2534,0.2577,0.2582,0.2581,0.2584,0.2585,0.2586,0,0,0,0,0,0,0,0.2196,0.2207,0.2303,0.2306,0.2314,0.2335,0.2347,0.2379,0.2447,0.2404,0.241,0.2421,0.2512,0.253,0.2537,0.2584,0.2581,0.2585,0.2587,0.2588,0.2635,0.2634,0,0,0,0,0,0,0.2182,0.2202,0.2299,0.2306,0.2261,0.2337,0.235,0.2369,0.2447,0.246,0.242,0.2425,0.2524,0.2533,0.2542,0.2549,0.2585,0.2589,0.2591,0.2636,0.2635,0.2634,0,0,0,0,0,0,0.2179,0.219,0.2295,0.2255,0.227,0.2338,0.2359,0.2371,0.239,0.2459,0.2472,0.2427,0.2525,0.2537,0.2564,0.2554,0.259,0.2593,0.2637,0.2635,0.2634,0.2563,0,0,0,0,0,0,0.2174,0.2188,0.2188,0.2255,0.2272,0.2313,0.2358,0.2372,0.2395,0.2402,0.2469,0.2481,0.2527,0.2558,0.2567,0.2559,0.2596,0.2638,0.2636,0.2635,0.2566,0.2559,0.2553,0,0,0,0,0,0.217,0.2165,0.2188,0.2199,0.2274,0.2312,0.2323,0.2374,0.2394,0.2396,0.244,0.2478,0.2553,0.256,0.2571,0.2564,0.2639,0.2637,0.2635,0.2569,0.2561,0.2553,0,0,0,0,0,0,0.2097,0.2175,0.2201,0.2217,0.2257,0.2326,0.2329,0.2363,0.24,0.2405,0.2469,0.2484,0.2504,0.2537,0.2543,0.2571,0.2601,0.2601,0.2548,0.254,0.2533,0.2524,0.2599,0,0,0,0,0,0.2083,0.2106,0.2174,0.2182,0.22,0.2261,0.228,0.2316,0.2361,0.2379,0.2426,0.2469,0.2503,0.2523,0.2558,0.2572,0.2588,0.2573,0.2566,0.2561,0.256,0.257,0.2564,0.2627,0.2627,0.2627,0,0,0.2054,0.2099,0.211,0.2168,0.2204,0.2228,0.2275,0.2299,0.2318,0.2383,0.2411,0.2447,0.25,0.252,0.2531,0.2548,0.2546,0.2558,0.2553,0.2555,0.2567,0.2561,0.2555,0.2625,0.2626,0.2626,0,0,0.2013,0.205,0.206,0.2094,0.2147,0.2187,0.219,0.2253,0.2279,0.2307,0.2357,0.2382,0.2438,0.2473,0.2499,0.2472,0.2508,0.2482,0.2447,0.2455,0.245,0.2446,0.2436,0.2432,0.2481,0.2481,0.248,0,0.1971,0.2008,0.2062,0.2082,0.2106,0.2166,0.2177,0.2209,0.227,0.2287,0.2305,0.2376,0.2416,0.2445,0.2439,0.2458,0.2463,0.2474,0.2446,0.2443,0.244,0.2431,0.2427,0.2477,0.2477,0.2478,0.2478,0,0.1953,0.1978,0.1981,0.2036,0.2062,0.2078,0.2135,0.2155,0.2189,0.2228,0.2256,0.2306,0.2352,0.2362,0.2397,0.2396,0.2405,0.2434,0.2466,0.2429,0.2422,0.2419,0.2472,0.2473,0.2474,0.2475,0,0,0.1869,0.1954,0.1954,0.198,0.2043,0.2064,0.2084,0.2127,0.2142,0.2183,0.2201,0.2247,0.2274,0.2303,0.2342,0.235,0.2325,0.2378,0.2381,0.2366,0.2328,0.2305,0.23,0.235,0.235,0.235,0.2323,0,0.1838,0.1873,0.1922,0.1942,0.1966,0.2023,0.204,0.2081,0.2118,0.2146,0.2188,0.2219,0.2253,0.227,0.2281,0.2326,0.2318,0.2329,0.2369,0.2369,0.2352,0.2297,0.2273,0.2245,0.2321,0.2321,0.232,0,0.1805,0.1841,0.1862,0.1923,0.1935,0.1949,0.1992,0.2017,0.2065,0.2092,0.2124,0.2166,0.2191,0.222,0.2256,0.2261,0.2281,0.2306,0.2306,0.2311,0.2342,0.2299,0.2238,0.2233,0.2317,0.2317,0.2317,0,0.174,0.1795,0.1814,0.1835,0.1906,0.1915,0.1945,0.1994,0.2017,0.2056,0.2071,0.2113,0.2136,0.2168,0.2221,0.2237,0.2251,0.2284,0.2274,0.2273,0.2274,0.2273,0.2214,0.2288,0.2288,0.2288,0.2288,0,0.1699,0.171,0.1786,0.1798,0.1812,0.187,0.1883,0.1919,0.1962,0.1983,0.2037,0.2056,0.2125,0.2152,0.2194,0.2217,0.2228,0.2251,0.2261,0.2245,0.2242,0.2258,0.2261,0.2287,0.2287,0.2287,0.2287,0,0.1629,0.168,0.1705,0.177,0.1787,0.1794,0.1851,0.1866,0.1906,0.1932,0.1942,0.2006,0.2041,0.2097,0.215,0.2178,0.2194,0.2212,0.2176,0.2183,0.2169,0.2169,0.2118,0.2114,0.219,0.2189,0.2189,0,0.1598,0.1608,0.1673,0.169,0.1718,0.1745,0.1768,0.1827,0.1849,0.1904,0.1912,0.1952,0.1986,0.204,0.2092,0.2133,0.2153,0.2132,0.2159,0.2142,0.2151,0.215,0.2151,0.2125,0.2124,0.2123,0.2122,0,0.1539,0.1564,0.1594,0.1633,0.1658,0.1693,0.173,0.1741,0.1808,0.183,0.1866,0.1893,0.1946,0.1984,0.2032,0.2065,0.2105,0.2113,0.2113,0.2096,0.2074,0.2085,0.2158,0.2114,0.2115,0.2115,0.2116,0.2116,0.1487,0.1498,0.1545,0.1578,0.1611,0.1644,0.1661,0.1703,0.1734,0.178,0.1813,0.1847,0.1896,0.1964,0.1995,0.2024,0.2041,0.2041,0.2041,0.2039,0.2033,0.207,0.2033,0.2033,0.2034,0.2034,0.2034,0,0.143,0.1463,0.1492,0.1541,0.1567,0.16,0.1643,0.1663,0.1691,0.1733,0.1765,0.1807,0.1844,0.1899,0.1942,0.1954,0.1973,0.1963,0.1962,0.1969,0.2015,0.2011,0.1946,0.1946,0.1947,0.1947,0.1947,0.1947,0.1403,0.1422,0.1453,0.1491,0.1525,0.1557,0.1578,0.161,0.1643,0.1686,0.1717,0.1752,0.18,0.1846,0.1883,0.1898,0.1911,0.1895,0.1916,0.1958,0.1966,0.1974,0.197,0.1898,0.1897,0.1867,0.1867,0.1867]},{"header":{"parameterUnit":"m.s-1","parameterCategory":1,"la1":30.2991,"la2":30.254,"lo1":-89.0895,"lo2":-89.0444,"dy":0.0017,"dx":0.0017,"nx":28,"ny":28,"refTime":"2025-06-16T03:00:00:Z","depth":0,"parameterNumber":3,"parameterNumberName":"V-component_of_WINDS"},"data":[0,0,0,0,0,0,0,0,0,0,0,0,0,0,0,0,0,0,0,0,0,0,0,0,0,0,0,0,0,0,0,0,0,0,0,0,0,0,0,0,0,0,0,0,0,0,0,0,0,0,0,0,0,0,0,0,0,0,1.5632,1.5634,0,1.5807,1.5809,1.5811,1.5818,1.5816,1.5814,1.5812,1.5986,1.5992,1.5999,0,0,0,0,0,0,0,0,0,0,0,0,0,1.5297,1.5303,1.5632,1.5634,1.5636,1.5807,1.5809,1.5812,1.5819,1.5816,1.5814,1.5811,1.5984,1.5991,1.5999,0,0,0,0,0,0,0,0,0,0,0,0,0,1.5454,1.5305,1.5631,1.566,1.5665,1.5806,1.5809,1.5812,1.5819,1.5816,1.5813,1.581,1.5981,1.5991,1.6,1.6123,0,0,1.603,1.6034,0,0,0,0,0,0,0,0,1.5445,1.5466,1.5654,1.5659,1.5664,1.5788,1.5755,1.5916,1.582,1.576,1.5812,1.5809,1.5922,1.5936,1.5976,1.6131,1.6138,1.6031,1.6037,1.6041,1.6044,0,0,0,0,0,0,0,1.5434,1.5459,1.5701,1.5656,1.5663,1.5663,1.5681,1.5785,1.5856,1.5765,1.5766,1.5787,1.5924,1.5966,1.598,1.6141,1.6031,1.604,1.6046,1.6049,1.6406,1.6409,0,0,0,0,0,0,1.5418,1.5449,1.5695,1.5706,1.5545,1.5671,1.5692,1.5751,1.5855,1.5868,1.579,1.5787,1.5951,1.5969,1.5986,1.6138,1.6041,1.605,1.6056,1.6402,1.6406,1.641,0,0,0,0,0,0,1.5411,1.544,1.5688,1.5578,1.561,1.568,1.5746,1.5756,1.5799,1.5874,1.5886,1.5821,1.5949,1.5972,1.6089,1.6144,1.6055,1.6064,1.6398,1.6403,1.6408,1.6441,0,0,0,0,0,0,1.5401,1.5438,1.5486,1.5579,1.5616,1.579,1.5749,1.5762,1.5816,1.5814,1.5906,1.5918,1.5949,1.6075,1.6099,1.6156,1.6071,1.6393,1.64,1.6407,1.6435,1.6446,1.6456,0,0,0,0,0,1.5389,1.5487,1.5489,1.5518,1.5679,1.5794,1.5814,1.585,1.5821,1.587,1.5918,1.5915,1.6133,1.6087,1.6114,1.6174,1.639,1.6398,1.6406,1.643,1.6444,1.6456,0,0,0,0,0,0,1.5396,1.55,1.5503,1.5634,1.5705,1.5795,1.5857,1.5863,1.5942,1.5937,1.5975,1.5996,1.6112,1.6154,1.6101,1.6299,1.6258,1.6272,1.6267,1.6281,1.6291,1.6279,1.608,0,0,0,0,0,1.5413,1.55,1.5585,1.5692,1.5728,1.5786,1.5838,1.5859,1.5934,1.5963,1.602,1.6091,1.6175,1.623,1.6312,1.6441,1.6461,1.6495,1.6506,1.6514,1.6526,1.6598,1.6615,1.6437,1.6437,1.6436,0,0,1.5448,1.5516,1.5568,1.5695,1.5753,1.584,1.5812,1.5905,1.597,1.5977,1.6092,1.6136,1.6217,1.6341,1.6398,1.6379,1.658,1.6525,1.6531,1.6538,1.6608,1.6625,1.664,1.6442,1.6441,1.644,0,0,1.5558,1.5618,1.5714,1.5773,1.5862,1.5901,1.5923,1.6013,1.6043,1.6159,1.6166,1.6243,1.6388,1.6446,1.6494,1.6626,1.6627,1.6651,1.6707,1.6776,1.679,1.6803,1.6851,1.6868,1.6663,1.6663,1.6663,0,1.559,1.5725,1.5762,1.5857,1.5913,1.5925,1.6022,1.6076,1.6186,1.6223,1.6202,1.6385,1.644,1.6578,1.661,1.6649,1.6676,1.6642,1.6786,1.6799,1.6811,1.6857,1.6875,1.6665,1.6665,1.6665,1.6664,0,1.576,1.5853,1.592,1.6029,1.6092,1.6187,1.6237,1.6296,1.6311,1.6351,1.6469,1.6536,1.6633,1.6666,1.6681,1.6807,1.6793,1.6778,1.6738,1.683,1.6874,1.6892,1.6669,1.6668,1.6667,1.6666,0,0,1.5879,1.6009,1.6033,1.6083,1.6182,1.6253,1.6348,1.6445,1.6495,1.6569,1.665,1.6772,1.676,1.6815,1.6836,1.6897,1.6998,1.6875,1.6877,1.6896,1.7141,1.7153,1.7173,1.6999,1.7002,1.7005,1.7135,0,1.6,1.6173,1.621,1.6358,1.6445,1.6457,1.654,1.6608,1.6648,1.6726,1.6768,1.6856,1.6831,1.6865,1.6926,1.6973,1.7048,1.6964,1.7073,1.7077,1.7054,1.7196,1.7209,1.7328,1.7152,1.7155,1.7157,0,1.6165,1.6248,1.6406,1.6494,1.6532,1.6606,1.6698,1.6772,1.6849,1.6874,1.6936,1.6951,1.7048,1.7003,1.7138,1.708,1.7127,1.7157,1.7162,1.7175,1.7124,1.7213,1.7367,1.7385,1.7184,1.7182,1.718,0,1.6238,1.6387,1.6502,1.6544,1.665,1.6702,1.6748,1.6822,1.6878,1.6957,1.6994,1.7082,1.7131,1.7198,1.7236,1.7199,1.7368,1.7326,1.7391,1.739,1.7427,1.7425,1.7591,1.7455,1.7454,1.7454,1.7454,0,1.637,1.6467,1.6536,1.6606,1.6714,1.6754,1.6859,1.6904,1.6971,1.7049,1.7064,1.7136,1.7181,1.726,1.7289,1.7397,1.7418,1.744,1.7448,1.744,1.7438,1.7472,1.7466,1.7459,1.7458,1.7457,1.7456,0,1.647,1.6521,1.6646,1.6737,1.6762,1.6837,1.6914,1.6982,1.7022,1.712,1.7146,1.7208,1.7301,1.7346,1.746,1.748,1.7603,1.7603,1.7578,1.7581,1.7644,1.7638,1.784,1.7869,1.7711,1.7713,1.7714,0,1.6552,1.6627,1.6726,1.6781,1.683,1.6917,1.6975,1.7016,1.7076,1.717,1.7226,1.7321,1.7399,1.7547,1.7601,1.7689,1.7692,1.7757,1.7706,1.7696,1.7695,1.7691,1.7699,1.7767,1.7768,1.7769,1.777,0,1.6692,1.6714,1.6798,1.6892,1.6961,1.7036,1.7109,1.7152,1.7205,1.7271,1.7368,1.7429,1.7547,1.7641,1.7732,1.7777,1.7783,1.7786,1.7806,1.78,1.7783,1.7795,1.7605,1.7782,1.778,1.778,1.7779,1.7779,1.6787,1.6854,1.6936,1.7029,1.7089,1.7158,1.7227,1.7276,1.7359,1.7461,1.7479,1.7582,1.7657,1.7782,1.783,1.791,1.7895,1.7924,1.7931,1.7938,1.7942,1.7769,1.7927,1.7926,1.7926,1.7926,1.7926,0,1.6929,1.6982,1.7068,1.7172,1.7245,1.7246,1.7327,1.7388,1.748,1.755,1.7628,1.7739,1.783,1.7892,1.7983,1.8036,1.8041,1.8058,1.8056,1.8066,1.795,1.7924,1.8053,1.8053,1.8053,1.8053,1.8053,1.8053,1.7012,1.7127,1.7158,1.7303,1.7355,1.7459,1.7505,1.7568,1.7625,1.775,1.7827,1.7867,1.7934,1.8031,1.8114,1.813,1.8163,1.8182,1.8197,1.8088,1.8074,1.8062,1.8038,1.8189,1.8189,1.8307,1.8309,1.8309]}]]